Weather History for Burns, OR

Change the Weather History Date:

Tuesday, January 8, 2013

  Actual Average Record
Temperature  
Mean Temperature 31 °F 24 °F  
Max Temperature 44 °F 34 °F 55 °F (1962)
Min Temperature 17 °F 14 °F -12 °F (1977)
Degree Days  
Heating Degree Days 34 41  
Month to date heating degree days 432 328  
Since 1 July heating degree days 3322 3595  
Cooling Degree Days 0 0  
Month to date cooling degree days 0 0  
Year to date cooling degree days 0 0  
Moisture  
Dew Point 25 °F    
Average Humidity 83    
Maximum Humidity 100    
Minimum Humidity 65    
Precipitation  
Precipitation 0.00 in 0.04 in 0.57 in (2008)
Month to date precipitation 0.08 0.35  
Year to date precipitation 0.08 0.35  
Sea Level Pressure  
Sea Level Pressure 30.21 in    
Wind  
Wind Speed 2 mph (NW)    
Max Wind Speed 12 mph    
Max Gust Speed 15 mph    
Visibility 8 miles    
Events      
T = Trace of Precipitation, MM = Missing Value Source: NWS Daily Summary

Daily Weather History Graph

Daily Weather History Graph

Search for Another Location

Airport:

Trip Planner

Search our weather history database for the weather conditions in past years. The results will help you decide how hot, cold, wet, or windy it might be!

Date:

Astronomy

Jan. 08, 2013 Rise Set
Actual Time 7:28 AM PST 4:37 PM PST
Civil Twilight 6:56 AM PST 5:09 PM PST
Nautical Twilight 6:20 AM PST 5:45 PM PST
Astronomical Twilight 5:45 AM PST 6:19 PM PST
Moon 4:06 AM PST (1/8) 1:44 PM PST (1/8)
Length of Visible Light 10h 13m
Length of Day
9h 08m
Waning Crescent, 13% of the Moon is Illuminated
Jan 8
Waning Crescent
Jan 11
New
Jan 18
First Quarter
Jan 26
Full
Feb 3
Last Quarter

Hourly Weather History & Observations

Time (PST) Temp. Windchill Dew Point Humidity Pressure Visibility Wind Dir Wind Speed Gust Speed Precip Events Conditions
12:53 AM 27.0 °F - 26.1 °F 96% 30.24 in 10.0 mi Calm Calm - N/A   Overcast
1:53 AM 28.9 °F - 27.0 °F 92% 30.25 in 10.0 mi Calm Calm - N/A   Overcast
2:53 AM 30.0 °F - 28.0 °F 92% 30.25 in 10.0 mi Calm Calm - N/A   Overcast
3:53 AM 30.9 °F - 28.0 °F 89% 30.25 in 10.0 mi Calm Calm - N/A   Overcast
4:53 AM 30.9 °F 27.5 °F 28.0 °F 89% 30.25 in 10.0 mi East 3.5 mph - N/A   Overcast
5:53 AM 32.0 °F 28.7 °F 30.0 °F 92% 30.26 in 10.0 mi NE 3.5 mph - N/A   Overcast
6:40 AM 32.0 °F - 28.4 °F 87% 30.17 in 10.0 mi Calm Calm - N/A   Overcast
6:53 AM 32.0 °F - 30.0 °F 92% 30.27 in 10.0 mi Calm Calm - N/A   Overcast
7:34 AM 32.0 °F - 30.2 °F 93% 30.17 in 10.0 mi Calm Calm - N/A   Overcast
7:53 AM 32.0 °F - 30.0 °F 92% 30.26 in 10.0 mi Calm Calm - N/A   Overcast
8:53 AM 36.0 °F - 32.0 °F 86% 30.27 in 10.0 mi Calm Calm - N/A   Overcast
9:26 AM 33.8 °F - 30.2 °F 87% 30.19 in 10.0 mi Calm Calm - N/A   Scattered Clouds
9:42 AM 35.6 °F - 30.2 °F 81% 30.19 in 10.0 mi Calm Calm - N/A   Mostly Cloudy
9:53 AM 37.0 °F 33.3 °F 30.9 °F 79% 30.26 in 10.0 mi WNW 4.6 mph - N/A   Scattered Clouds
10:53 AM 39.0 °F 34.8 °F 30.9 °F 73% 30.25 in 10.0 mi WSW 5.8 mph - N/A   Clear
11:53 AM 41.0 °F 38.0 °F 30.9 °F 67% 30.22 in 10.0 mi SSW 4.6 mph - N/A   Mostly Cloudy
12:53 PM 39.9 °F 37.8 °F 32.0 °F 73% 30.21 in 10.0 mi South 3.5 mph - N/A   Partly Cloudy
1:53 PM 41.0 °F 36.4 °F 32.0 °F 70% 30.20 in 10.0 mi SSW 6.9 mph - N/A   Clear
2:53 PM 39.9 °F 37.8 °F 32.0 °F 73% 30.21 in 10.0 mi South 3.5 mph - N/A   Mostly Cloudy
3:53 PM 41.0 °F - 32.0 °F 70% 30.21 in 10.0 mi Calm Calm - N/A   Clear
4:53 PM 33.1 °F 28.7 °F 28.9 °F 85% 30.23 in 10.0 mi NNW 4.6 mph - N/A   Clear
5:53 PM 27.0 °F 23.0 °F 25.0 °F 92% 30.23 in 10.0 mi NNE 3.5 mph - N/A   Clear
6:53 PM 24.1 °F 18.2 °F 21.9 °F 91% 30.24 in 10.0 mi NNW 4.6 mph - N/A   Clear
7:53 PM 21.0 °F 14.6 °F 19.0 °F 92% 30.25 in 10.0 mi WSW 4.6 mph - N/A   Clear
8:53 PM 19.0 °F 12.3 °F 18.0 °F 96% 30.23 in 5.0 mi North 4.6 mph - N/A   Clear
9:37 PM 19.4 °F 14.3 °F 17.6 °F 93% 30.14 in 2.5 mi North 3.5 mph - N/A   Partly Cloudy
9:40 PM 19.4 °F - 17.6 °F 93% 30.14 in 1.2 mi Calm Calm - N/A   Partly Cloudy
9:43 PM 17.6 °F - 17.6 °F 100% 30.14 in 0.8 mi Calm Calm - N/A   Mist
9:53 PM 18.0 °F - 17.1 °F 96% 30.22 in 0.8 mi Calm Calm - N/A   Mist
9:56 PM 17.6 °F - 15.8 °F 93% 30.14 in 1.2 mi Calm Calm - N/A   Scattered Clouds
9:59 PM 17.6 °F - 15.8 °F 93% 30.14 in 2.0 mi Calm Calm - N/A   Scattered Clouds
10:07 PM 19.4 °F - 17.6 °F 93% 30.14 in 8.0 mi Calm Calm - N/A   Partly Cloudy
10:37 PM 17.6 °F - 15.8 °F 93% 30.13 in 2.0 mi Calm Calm - N/A   Clear
10:46 PM 17.6 °F - 15.8 °F 93% 30.14 in 9.0 mi Calm Calm - N/A   Clear
10:53 PM 17.1 °F - 15.1 °F 92% 30.22 in 9.0 mi Calm Calm - N/A   Clear
11:53 PM 19.9 °F - 17.1 °F 89% 30.18 in 10.0 mi Calm Calm - N/A   Clear